Hourly Weather Roundup
Issued by NWS Central Illinois

Home | Current Version | Previous Version | Graphics & Text | Print | Product List | Glossary On
Versions: 1 2 3 4 5 6 7 8 9 10 11 12 13 14 15 16 17 18 19 20 21 22 23 24 25 26 27 28 29 30 31 32 33 34 35 36 37 38 39 40 41 42 43 44 45 46 47 48 49 50
000
NZUS43 KILX 280110
HWRILX

AREA WEATHER ROUNDUP
NATIONAL WEATHER SERVICE, LINCOLN IL
800 PM CDT WED APR 27 2016


CITY           SKY/WX    TMP DP  RH WIND       PRES   REMARKS
BLOOMINGTON    CLOUDY    55  54  97 E18       29.74R
CHAMPAIGN      CLOUDY    59  57  93 E13       29.72R FOG
DANVILLE       CLOUDY    56  54  92 E10       29.71R
DECATUR        TSTM      61  58  90 E17       29.69R FOG
EFFINGHAM      TSTM      66  65  96 SE15G25   29.65F
FLORA          CLOUDY    69  65  88 SE12G17   29.66S
GALESBURG      CLOUDY    51  49  92 E20G28    29.69S FOG
JACKSONVILLE   CLOUDY    62  60  93 E15       29.64R FOG
LACON          CLOUDY    50  47  88 E13G21    29.73F FOG
LAWRENCEVILLE  CLOUDY    67  32  27 SE20      29.70S
LITCHFIELD     PTCLDY    67  61  83 E6        29.63R
$$


CITY           SKY/WX    TMP DP  RH WIND       PRES   REMARKS
LINCOLN        CLOUDY    59  57  92 E15G24    29.68F FOG
MACOMB         CLOUDY    55  54  94 E15       29.69R FOG
MATTOON        CLOUDY    62  59  90 SE13      29.69S FOG
MT CARMEL AP   NOT AVBL
OLNEY-NOBLE AP CLOUDY    68  64  88 SE10      29.68R THUNDER
PARIS          CLOUDY    59  59  97 E12       29.73F FOG
PEORIA         CLOUDY    54  49  83 E14G23    29.71F
PONTIAC        CLOUDY    54  51  90 E18G25    29.76S FOG
RANTOUL        CLOUDY    58  56  92 E12       29.74S FOG
ROBINSON       CLOUDY    63  62  99 SE9       29.72R
SPRINGFIELD    CLOUDY    62  59  90 E17       29.65S FOG
TAYLORVILLE    CLOUDY    63  59  88 SE13      29.65R THUNDER
$$

...REGIONAL REPORTS...


CITY           SKY/WX    TMP DP  RH WIND       PRES   REMARKS
CHICAGO O`HARE CLOUDY    43  39  86 NE15      29.82F
KANKAKEE       CLOUDY    53  48  84 E15       29.79R
MOLINE         CLOUDY    50  45  83 E20       29.74R
MOUNT STERLING CLOUDY    58  58  97 E15       29.63R THUNDER FOG
MOUNT VERNON   CLOUDY    72  61  68 SE6       29.66S
PITTSFIELD     CLOUDY    65  63  94 NE13G18   29.63R THUNDER FOG
QUINCY         CLOUDY    63  60  90 E13       29.60R FOG
ROCKFORD       CLOUDY    45  38  76 E12       29.83S
$$


CITY           SKY/WX    TMP DP  RH WIND       PRES   REMARKS
BURLINGTON     CLOUDY    54  53  97 E15       29.65S
CEDAR RAPIDS   CLOUDY    46  46 100 E23G30    29.69S FOG
DES MOINES     TSTM      50  46  86 E10       29.64F FOG
KIRKSVILLE     TSTM      56  51  84 VRB6G23   29.61R
OTTUMWA        CLOUDY    52  50  93 E24G32    29.60F FOG
ST LOUIS       PTCLDY    72  62  71 E6        29.60R
$$


CITY           SKY/WX    TMP DP  RH WIND       PRES   REMARKS
TERRE HAUTE    LGT RAIN  61  59  93 E9        29.73R FOG
EVANSVILLE     HVY RAIN  63  61  93 SE9       29.76R VSB 1/2
INDIANAPOLIS   LGT RAIN  60  55  83 E13       29.76S
LAFAYETTE      LGT RAIN  54  51  90 E14       29.77F FOG
MADISON        CLOUDY    43  34  70 E12       29.86S
MILWAUKEE      LGT RAIN  41  33  73 N16       29.91R WCI  33
$$






USA.gov is the U.S. government's official web portal to all federal, state and local government web resources and services.